SCP
0 0 0 0 0 0 0 0 0 0 0 0 0 0 0 0 0 0 0 0 0 0 0 0 0 0 0 0 0 0 0 0 0 0 0 0 0 0 0 0 0 0 0
0 0 0 0 0 0 0 0 0 0 0 0 0 0 0 0 0 0 0 0 0 0 0 0 0 0 0 0 0 0 0 0 0 0 0 0 0 0 0 0 0 0 0
0 0 0 0 0 0 0 0 0 0 0 0 0 0 0 0 0 0 0 0 0 0 0 0 0 0 0 0 0 0 0 0 0 0 0 0 0 0 0 0 0 0 0
0 0 0 0 0 0 0 0 0 0 0 0 0 0 0 0 0 0 0 0 0 0 0 0 0 0 0 0 0 0 0 0 0 0 0 0 0 0 0 0 0 0 0
0 0 0 0 0 0 0 0 0 0 0 0 0 0 0 0 0 0 0 0 0 0 0 0 0 0 0 0 0 0 0 0 0 0 0 0 0 0 0 0 0 0 0
0 0 0 0 0 0 0 0 0 0 0 0 0 0 0 0 0 0 0 0 0 0 0 0 0 0 0 0 0 0 0 0 0 0 0 0 0 0 0 0 0 0 0
0 0 0 0 0 0 0 0 0 0 0 0 0 0 0 0 0 0 0 0 0 0 0 0 0 0 0 0 0 0 0 0 0 0 0 0 0 0 0 0 0 0 0
0 0 0 0 0 0 0 0 0 0 0 0 0 0 0 0 0 0 0 0 0 0 0 0 0 0 0 0 0 0 0 0 0 0 0 0 0 0 0 0 0 0 0
0 0 0 0 0 0 0 0 0 0 0 0 0 0 0 0 0 0 0 0 0 0 0 0 0 0 0 0 0 0 0 0 0 0 0 0 0 0 0 0 0 0 0
0 0 0 0 0 0 0 0 0 0 0 0 0 0 0 0 0 0 0 0 0 0 0 0 0 0 0 0 0 0 0 0 0 0 0 0 0 0 0 0 0 0 0
0 0 0 0 0 0 0 0 0 0 0 0 0 0 0 0 0 0 0 0 0 0 0 0 0 0 0 0 0 0 0 0 0 0 0 0 0 0 0 0 0 0 0
0 0 0 0 0 0 0 0 0 0 0 0 0 0 0 0 0 0 0 0 0 0 0 0 0 0 0 0 0 0 0 0 0 0 0 0 0 0 0 0 0 0 0
0 0 0 0 0 0 0 0 0 0 0 0 0 0 0 0 0 0 0 0 0 0 0 0 0 0 0 0 0 0 0 0 0 0 0 0 0 0 0 0 0 0 0
0 0 0 0 0 0 0 0 0 0 0 0 0 0 0 0 0 0 0 0 0 0 0 0 0 0 0 0 0 0 0 0 0 0 0 0 0 0 0 0 0 0 0
0 0 0 0 0 0 0 0 0 0 0 0 0 0 0 0 0 0 0 0 0 0 0 0 0 0 0 0 0 0 -0 0 0 0 0 0 0 0 0 0 0 0 0
0 0 0 0 0 0 0 0 0 0 0 0 0 0 0 0 -0 0 0 0 0 0 0 0 0 0 0 0 0 0 0 0 0 0 0 0 0 0 0 0 0 0 0
0 0 0 0 0 0 0 0 0 0 0 0 0 0 0 0 0 0 0 0 0 0 0 0 0 0 0 0 0 0 0 0 0 0 0 0 0 0 0 0 0 0 0
0 0 0 0 0 0 0 0 0 0 0 0 0 0 0 0 0 0 0 0 0 0 0 0 0 0 0 0 0 0 0 0 0 0 0 0 0 0 0 0 0 0 0
0 0 0 0 0 0 0 0 0 0 0 0 0 0 0 0 0 0 0 0 0 0 0 0 0 0 0 0 0 0 0 0 0 0 0 0 0 0 0 0 0 0 0
0 0 0 0 0 0 0 0 0 0 0 0 0 0 0 0 0 0 0 0 0 0 0 0 0 0 0 0 0 0 0 0 0 0 0 0 0 0 0 0 0 0 0
0 0 0 0 0 0 0 0 0 0 0 0 0 0 0 0 0 0 0 0 0 0 0 0 0 0 0 0 0 0 0 0 0 0 0 0 0 0 0 0 0 0 0
0 0 0 0 0 0 0 0 0 0 0 0 0 0 0 0 0 0 0 0 0 0 0 0 0 0 0 0 0 0 0 0 0 0 0 0 0 0 0 0 0 0 0
0 0 0 0 0 0 0 0 0 0 0 0 0 0 0 0 0 0 0 0 0 0 0 0 0 0 0 0 0 0 0 0 0 0 0 0 0 0 0 0 0 0 0
0 0 0 0 0 0 0 0 0 0 0 0 0 0 0 0 0 0 0 0 0 0 0 0 0 0 0 0 0 0 0 0 0 0 0 0 0 0 0 0 0 0 0
0 0 0 0 0 0 0 0 0 0 0 0 0 0 0 0 0 0 0 0 0 0 0 0 0 0 0 0 0 0 0 0 0 0 0 0 0 0 0 0 0 0 0
0 0 0 0 0 0 0 0 0 0 0 0 0 0 0 0 0 0 0 0 0 0 0 0 0 0 0 0 0 0 0 0 0 0 0 0 0 0 0 0 0 0 0
Wind_Speed_500mb
10 12 15 18 20 22 25 28 32 35 39 35 40 42 44 46 49 52 55 55 59 60 60 57 58 60 63 63 66 71 72 68 75 89 81 82 80 79 81 77 76 77 79
5 7 10 12 14 17 20 22 24 26 28 29 32 35 37 38 39 41 43 44 46 47 49 49 50 53 56 59 63 65 66 64 69 84 83 80 77 76 75 74 67 62 64
2 5 6 8 9 11 14 17 20 23 25 26 27 28 30 32 35 38 40 42 45 47 49 50 52 54 57 59 62 63 64 62 62 69 79 77 74 67 62 60 61 60 58
4 6 8 10 13 14 15 17 20 22 24 26 29 30 33 35 37 40 42 44 44 44 46 49 53 55 59 63 66 64 58 56 56 60 66 68 66 60 57 60 66 66 69
9 10 11 11 13 17 20 21 23 26 28 29 31 33 36 39 41 43 44 44 47 48 46 46 45 46 51 55 59 61 61 59 57 59 64 65 68 62 57 61 68 75 76
16 16 19 22 23 23 23 25 26 29 30 31 31 33 34 37 41 45 49 48 46 47 48 46 46 46 49 51 54 58 60 59 62 61 67 73 75 69 64 67 69 75 84
19 21 22 25 27 28 29 29 29 28 28 30 33 33 33 34 41 44 46 45 45 46 49 52 56 55 57 60 60 58 59 58 58 61 71 75 80 73 72 72 68 71 78
22 23 24 25 26 27 29 30 30 31 32 31 33 35 35 36 41 42 45 44 47 51 53 55 57 58 54 53 61 64 62 62 60 58 64 72 73 70 66 68 73 79 86
20 21 22 23 24 25 26 27 29 31 34 36 38 39 40 39 42 46 51 52 52 53 53 54 52 53 51 51 56 64 64 67 65 62 63 70 72 67 58 62 72 74 87
22 22 22 23 25 25 26 27 28 28 29 30 31 35 38 44 42 46 51 56 59 61 61 62 61 59 57 54 53 60 71 76 75 74 72 69 69 67 58 57 59 69 71
19 18 19 20 21 23 25 26 27 27 27 28 30 32 35 40 42 42 45 47 51 56 62 65 66 64 58 53 51 60 66 66 71 81 84 84 78 74 69 59 54 56 64
14 15 17 18 19 21 23 25 28 29 30 31 32 33 34 36 39 41 43 41 41 51 54 60 59 52 54 52 56 60 60 64 76 83 91 95 95 93 85 73 68 66 63
11 13 14 17 19 20 22 24 26 27 29 32 35 38 39 40 41 41 42 40 43 45 53 52 50 51 54 65 61 58 62 65 69 73 80 84 82 85 84 72 58 62 69
10 12 14 16 17 19 20 23 26 28 30 34 38 42 44 43 45 46 51 55 56 57 57 63 67 65 62 66 68 66 63 62 64 69 75 78 78 67 57 59 69 82 91
7 8 9 10 13 16 19 22 24 26 31 36 39 42 47 48 46 46 49 52 56 56 60 67 67 68 73 76 76 72 71 70 69 69 72 76 78 78 80 75 71 76 84
8 11 14 16 18 21 23 19 21 25 30 30 32 37 41 44 46 46 47 49 50 50 56 62 68 72 76 76 76 78 78 77 76 74 73 74 79 81 81 74 71 71 74
13 16 20 23 26 29 31 35 37 25 27 30 34 38 43 49 52 54 53 48 43 49 58 61 68 73 76 78 80 84 88 84 78 75 75 75 75 76 77 76 63 58 66
18 21 24 27 30 33 37 39 42 47 50 45 43 44 44 48 52 54 51 45 52 52 60 70 75 77 80 83 84 86 85 80 79 79 78 76 75 76 76 75 74 71 69
18 22 26 29 33 38 42 45 47 48 50 49 45 41 50 50 53 51 49 51 57 60 63 68 72 77 81 83 86 85 83 83 83 82 82 78 75 73 76 71 70 70 68
23 28 31 33 34 37 41 45 47 49 51 51 50 51 51 54 52 52 52 55 58 60 66 72 77 82 86 88 88 86 86 85 85 84 83 80 78 75 75 74 72 72 71
21 25 30 35 39 42 45 47 50 52 54 55 53 50 52 57 58 58 58 55 57 61 66 72 78 82 87 87 88 89 90 90 89 89 86 83 80 80 76 75 74 73 72
23 26 30 33 37 40 44 48 52 55 57 60 60 55 52 55 58 59 59 56 56 60 65 75 81 85 87 87 89 92 93 97 94 92 90 88 86 84 81 79 78 76 73
26 29 32 36 42 46 49 52 55 57 59 61 62 63 58 57 58 59 60 59 59 62 65 73 82 88 86 84 86 93 97 95 97 97 95 92 90 88 86 84 80 78 76
30 36 41 44 47 50 53 55 57 58 60 62 63 63 63 61 59 59 59 59 61 63 66 73 83 89 87 84 87 87 89 92 95 96 94 94 94 93 89 87 86 83 80
37 40 44 49 53 55 58 59 60 60 60 61 63 63 63 63 60 57 57 58 61 65 69 75 84 89 84 87 87 82 85 89 83 85 88 87 91 93 92 91 90 86 83
40 45 49 53 57 60 63 65 64 62 62 61 62 63 63 64 60 58 57 57 60 64 69 78 85 85 84 86 87 87 84 90 84 77 76 85 90 90 89 90 88 85 83
Wind_Direction_500mb
231 235 243 249 253 258 262 263 263 264 263 262 260 261 261 262 263 265 267 267 267 268 269 270 272 273 275 274 274 276 277 278 279 282 282 281 282 285 288 289 288 288 288
227 245 249 254 258 260 263 265 266 266 267 264 261 259 259 259 260 261 262 265 268 270 272 274 275 277 277 278 279 279 278 278 278 283 287 287 288 288 291 292 293 291 289
241 272 270 263 261 267 269 270 272 274 273 272 270 268 269 268 267 266 265 267 270 274 279 281 282 282 282 282 282 282 282 281 279 280 283 287 288 290 291 293 293 294 292
6 320 314 316 313 307 301 296 292 288 285 285 287 289 288 285 282 279 278 278 278 280 282 284 287 288 287 287 285 284 285 282 281 279 281 285 290 296 298 300 297 297 298
336 324 323 318 315 313 311 309 304 299 297 297 296 294 293 290 289 288 287 287 287 285 283 284 285 287 288 290 290 289 286 286 286 286 287 290 290 293 299 302 301 301 301
329 323 332 326 321 316 313 308 308 307 306 303 301 299 297 296 295 293 294 296 296 297 296 295 296 296 294 294 293 291 289 287 286 287 287 287 289 293 297 297 300 302 306
319 322 319 316 315 314 313 310 307 306 306 304 300 298 298 297 293 294 295 296 298 300 301 302 300 298 297 295 290 282 281 281 282 283 287 288 290 295 297 296 295 294 292
309 311 311 311 311 312 311 311 312 312 310 310 309 305 299 295 294 295 293 295 296 296 297 298 299 299 297 292 284 284 284 284 282 279 278 279 281 287 287 292 292 291 289
307 306 306 304 304 304 304 304 305 306 307 306 305 306 305 301 300 301 302 304 305 304 304 302 301 302 302 299 299 296 291 288 289 285 279 278 283 286 289 289 288 292 291
305 307 310 313 315 315 312 310 309 309 307 306 306 305 303 304 306 303 301 302 303 303 302 302 303 305 305 308 307 301 299 299 300 297 289 283 283 283 286 283 288 285 284
311 318 320 322 326 326 325 323 322 321 319 317 315 314 312 310 311 311 310 312 313 311 306 306 306 308 314 315 314 303 298 298 293 291 290 291 288 289 290 288 286 283 277
315 318 327 332 333 331 332 332 330 327 326 324 323 323 324 326 327 326 322 320 327 317 317 313 319 322 314 313 306 306 306 302 296 297 296 294 294 294 293 293 289 284 273
313 320 326 329 333 332 335 336 337 340 342 342 342 341 344 347 346 343 340 340 333 326 323 324 319 318 316 316 322 318 314 310 307 305 303 302 300 297 296 296 289 280 279
334 339 344 345 345 347 351 350 348 347 346 346 344 342 344 347 344 341 341 336 331 328 333 324 317 318 320 320 321 323 321 317 313 308 306 303 304 306 292 282 279 282 281
340 354 352 347 348 348 349 346 346 344 341 341 338 337 335 336 336 331 329 327 327 326 321 314 321 324 323 324 323 323 322 320 316 312 306 304 303 299 297 297 292 287 283
1 359 349 342 341 339 338 338 341 336 334 332 329 326 325 323 324 323 324 323 322 324 315 320 321 322 322 322 321 319 319 319 317 311 306 305 301 298 299 297 294 292 291
342 337 335 331 332 332 330 331 330 332 329 327 325 326 326 326 327 327 326 322 318 322 323 323 322 324 322 320 318 317 316 315 314 311 308 304 304 301 298 298 295 289 284
342 341 338 334 334 331 328 328 328 327 328 330 329 328 325 320 320 325 326 318 318 322 326 327 328 328 326 323 320 318 316 314 312 310 307 304 302 300 298 295 296 294 292
345 342 339 340 341 341 337 331 326 321 318 317 316 316 317 315 316 319 316 315 317 321 324 324 324 324 324 323 322 318 317 315 314 311 307 304 303 301 297 297 295 292 290
337 337 335 334 333 332 332 331 329 326 323 318 315 315 313 309 313 318 321 319 318 317 321 323 324 324 323 322 321 320 318 316 314 311 308 304 302 299 297 296 293 290 291
330 327 328 334 334 332 329 327 324 323 325 325 322 317 316 314 315 315 317 316 316 317 321 324 325 326 326 322 322 320 318 316 313 310 306 305 302 297 297 294 292 289 287
329 331 331 329 327 326 327 328 327 326 324 323 324 322 315 309 309 311 314 316 316 318 322 325 326 328 328 325 324 322 318 315 314 310 307 302 299 296 294 292 289 287 286
323 323 325 327 329 329 328 327 325 325 324 322 320 321 320 313 310 311 314 315 315 317 321 324 326 328 329 328 326 322 318 316 315 310 304 300 295 292 290 287 285 282 281
319 325 327 326 325 324 323 323 322 322 321 321 320 319 320 316 312 311 313 313 314 316 321 325 328 330 329 329 327 324 321 321 319 311 305 298 293 290 285 281 278 279 279
319 319 320 320 320 319 319 319 319 319 319 320 319 318 317 317 313 311 313 313 315 317 323 327 331 332 330 331 330 327 327 326 316 309 306 295 287 286 284 280 276 274 274
315 316 317 317 318 317 317 317 316 316 316 318 319 319 317 318 316 313 314 314 316 320 325 329 333 335 334 333 332 333 326 330 320 317 311 301 293 289 284 282 278 273 271
Wind_Speed_850mb
10 12 15 18 20 22 25 28 32 35 39 35 40 42 44 46 49 52 55 55 59 60 60 57 58 60 63 63 66 71 72 68 75 89 81 82 80 79 81 77 76 77 79
5 7 10 12 14 17 20 22 24 26 28 29 32 35 37 38 39 41 43 44 46 47 49 49 50 53 56 59 63 65 66 64 69 84 83 80 77 76 75 74 67 62 64
2 5 6 8 9 11 14 17 20 23 25 26 27 28 30 32 35 38 40 42 45 47 49 50 52 54 57 59 62 63 64 62 62 69 79 77 74 67 62 60 61 60 58
4 6 8 10 13 14 15 17 20 22 24 26 29 30 33 35 37 40 42 44 44 44 46 49 53 55 59 63 66 64 58 56 56 60 66 68 66 60 57 60 66 66 69
9 10 11 11 13 17 20 21 23 26 28 29 31 33 36 39 41 43 44 44 47 48 46 46 45 46 51 55 59 61 61 59 57 59 64 65 68 62 57 61 68 75 76
16 16 19 22 23 23 23 25 26 29 30 31 31 33 34 37 41 45 49 48 46 47 48 46 46 46 49 51 54 58 60 59 62 61 67 73 75 69 64 67 69 75 84
19 21 22 25 27 28 29 29 29 28 28 30 33 33 33 34 41 44 46 45 45 46 49 52 56 55 57 60 60 58 59 58 58 61 71 75 80 73 72 72 68 71 78
22 23 24 25 26 27 29 30 30 31 32 31 33 35 35 36 41 42 45 44 47 51 53 55 57 58 54 53 61 64 62 62 60 58 64 72 73 70 66 68 73 79 86
20 21 22 23 24 25 26 27 29 31 34 36 38 39 40 39 42 46 51 52 52 53 53 54 52 53 51 51 56 64 64 67 65 62 63 70 72 67 58 62 72 74 87
22 22 22 23 25 25 26 27 28 28 29 30 31 35 38 44 42 46 51 56 59 61 61 62 61 59 57 54 53 60 71 76 75 74 72 69 69 67 58 57 59 69 71
19 18 19 20 21 23 25 26 27 27 27 28 30 32 35 40 42 42 45 47 51 56 62 65 66 64 58 53 51 60 66 66 71 81 84 84 78 74 69 59 54 56 64
14 15 17 18 19 21 23 25 28 29 30 31 32 33 34 36 39 41 43 41 41 51 54 60 59 52 54 52 56 60 60 64 76 83 91 95 95 93 85 73 68 66 63
11 13 14 17 19 20 22 24 26 27 29 32 35 38 39 40 41 41 42 40 43 45 53 52 50 51 54 65 61 58 62 65 69 73 80 84 82 85 84 72 58 62 69
10 12 14 16 17 19 20 23 26 28 30 34 38 42 44 43 45 46 51 55 56 57 57 63 67 65 62 66 68 66 63 62 64 69 75 78 78 67 57 59 69 82 91
7 8 9 10 13 16 19 22 24 26 31 36 39 42 47 48 46 46 49 52 56 56 60 67 67 68 73 76 76 72 71 70 69 69 72 76 78 78 80 75 71 76 84
8 11 14 16 18 21 23 19 21 25 30 30 32 37 41 44 46 46 47 49 50 50 56 62 68 72 76 76 76 78 78 77 76 74 73 74 79 81 81 74 71 71 74
13 16 20 23 26 29 31 35 37 25 27 30 34 38 43 49 52 54 53 48 43 49 58 61 68 73 76 78 80 84 88 84 78 75 75 75 75 76 77 76 63 58 66
18 21 24 27 30 33 37 39 42 47 50 45 43 44 44 48 52 54 51 45 52 52 60 70 75 77 80 83 84 86 85 80 79 79 78 76 75 76 76 75 74 71 69
18 22 26 29 33 38 42 45 47 48 50 49 45 41 50 50 53 51 49 51 57 60 63 68 72 77 81 83 86 85 83 83 83 82 82 78 75 73 76 71 70 70 68
23 28 31 33 34 37 41 45 47 49 51 51 50 51 51 54 52 52 52 55 58 60 66 72 77 82 86 88 88 86 86 85 85 84 83 80 78 75 75 74 72 72 71
21 25 30 35 39 42 45 47 50 52 54 55 53 50 52 57 58 58 58 55 57 61 66 72 78 82 87 87 88 89 90 90 89 89 86 83 80 80 76 75 74 73 72
23 26 30 33 37 40 44 48 52 55 57 60 60 55 52 55 58 59 59 56 56 60 65 75 81 85 87 87 89 92 93 97 94 92 90 88 86 84 81 79 78 76 73
26 29 32 36 42 46 49 52 55 57 59 61 62 63 58 57 58 59 60 59 59 62 65 73 82 88 86 84 86 93 97 95 97 97 95 92 90 88 86 84 80 78 76
30 36 41 44 47 50 53 55 57 58 60 62 63 63 63 61 59 59 59 59 61 63 66 73 83 89 87 84 87 87 89 92 95 96 94 94 94 93 89 87 86 83 80
37 40 44 49 53 55 58 59 60 60 60 61 63 63 63 63 60 57 57 58 61 65 69 75 84 89 84 87 87 82 85 89 83 85 88 87 91 93 92 91 90 86 83
40 45 49 53 57 60 63 65 64 62 62 61 62 63 63 64 60 58 57 57 60 64 69 78 85 85 84 86 87 87 84 90 84 77 76 85 90 90 89 90 88 85 83
Wind_Direction_850mb
231 235 243 249 253 258 262 263 263 264 263 262 260 261 261 262 263 265 267 267 267 268 269 270 272 273 275 274 274 276 277 278 279 282 282 281 282 285 288 289 288 288 288
227 245 249 254 258 260 263 265 266 266 267 264 261 259 259 259 260 261 262 265 268 270 272 274 275 277 277 278 279 279 278 278 278 283 287 287 288 288 291 292 293 291 289
241 272 270 263 261 267 269 270 272 274 273 272 270 268 269 268 267 266 265 267 270 274 279 281 282 282 282 282 282 282 282 281 279 280 283 287 288 290 291 293 293 294 292
6 320 314 316 313 307 301 296 292 288 285 285 287 289 288 285 282 279 278 278 278 280 282 284 287 288 287 287 285 284 285 282 281 279 281 285 290 296 298 300 297 297 298
336 324 323 318 315 313 311 309 304 299 297 297 296 294 293 290 289 288 287 287 287 285 283 284 285 287 288 290 290 289 286 286 286 286 287 290 290 293 299 302 301 301 301
329 323 332 326 321 316 313 308 308 307 306 303 301 299 297 296 295 293 294 296 296 297 296 295 296 296 294 294 293 291 289 287 286 287 287 287 289 293 297 297 300 302 306
319 322 319 316 315 314 313 310 307 306 306 304 300 298 298 297 293 294 295 296 298 300 301 302 300 298 297 295 290 282 281 281 282 283 287 288 290 295 297 296 295 294 292
309 311 311 311 311 312 311 311 312 312 310 310 309 305 299 295 294 295 293 295 296 296 297 298 299 299 297 292 284 284 284 284 282 279 278 279 281 287 287 292 292 291 289
307 306 306 304 304 304 304 304 305 306 307 306 305 306 305 301 300 301 302 304 305 304 304 302 301 302 302 299 299 296 291 288 289 285 279 278 283 286 289 289 288 292 291
305 307 310 313 315 315 312 310 309 309 307 306 306 305 303 304 306 303 301 302 303 303 302 302 303 305 305 308 307 301 299 299 300 297 289 283 283 283 286 283 288 285 284
311 318 320 322 326 326 325 323 322 321 319 317 315 314 312 310 311 311 310 312 313 311 306 306 306 308 314 315 314 303 298 298 293 291 290 291 288 289 290 288 286 283 277
315 318 327 332 333 331 332 332 330 327 326 324 323 323 324 326 327 326 322 320 327 317 317 313 319 322 314 313 306 306 306 302 296 297 296 294 294 294 293 293 289 284 273
313 320 326 329 333 332 335 336 337 340 342 342 342 341 344 347 346 343 340 340 333 326 323 324 319 318 316 316 322 318 314 310 307 305 303 302 300 297 296 296 289 280 279
334 339 344 345 345 347 351 350 348 347 346 346 344 342 344 347 344 341 341 336 331 328 333 324 317 318 320 320 321 323 321 317 313 308 306 303 304 306 292 282 279 282 281
340 354 352 347 348 348 349 346 346 344 341 341 338 337 335 336 336 331 329 327 327 326 321 314 321 324 323 324 323 323 322 320 316 312 306 304 303 299 297 297 292 287 283
1 359 349 342 341 339 338 338 341 336 334 332 329 326 325 323 324 323 324 323 322 324 315 320 321 322 322 322 321 319 319 319 317 311 306 305 301 298 299 297 294 292 291
342 337 335 331 332 332 330 331 330 332 329 327 325 326 326 326 327 327 326 322 318 322 323 323 322 324 322 320 318 317 316 315 314 311 308 304 304 301 298 298 295 289 284
342 341 338 334 334 331 328 328 328 327 328 330 329 328 325 320 320 325 326 318 318 322 326 327 328 328 326 323 320 318 316 314 312 310 307 304 302 300 298 295 296 294 292
345 342 339 340 341 341 337 331 326 321 318 317 316 316 317 315 316 319 316 315 317 321 324 324 324 324 324 323 322 318 317 315 314 311 307 304 303 301 297 297 295 292 290
337 337 335 334 333 332 332 331 329 326 323 318 315 315 313 309 313 318 321 319 318 317 321 323 324 324 323 322 321 320 318 316 314 311 308 304 302 299 297 296 293 290 291
330 327 328 334 334 332 329 327 324 323 325 325 322 317 316 314 315 315 317 316 316 317 321 324 325 326 326 322 322 320 318 316 313 310 306 305 302 297 297 294 292 289 287
329 331 331 329 327 326 327 328 327 326 324 323 324 322 315 309 309 311 314 316 316 318 322 325 326 328 328 325 324 322 318 315 314 310 307 302 299 296 294 292 289 287 286
323 323 325 327 329 329 328 327 325 325 324 322 320 321 320 313 310 311 314 315 315 317 321 324 326 328 329 328 326 322 318 316 315 310 304 300 295 292 290 287 285 282 281
319 325 327 326 325 324 323 323 322 322 321 321 320 319 320 316 312 311 313 313 314 316 321 325 328 330 329 329 327 324 321 321 319 311 305 298 293 290 285 281 278 279 279
319 319 320 320 320 319 319 319 319 319 319 320 319 318 317 317 313 311 313 313 315 317 323 327 331 332 330 331 330 327 327 326 316 309 306 295 287 286 284 280 276 274 274
315 316 317 317 318 317 317 317 316 316 316 318 319 319 317 318 316 313 314 314 316 320 325 329 333 335 334 333 332 333 326 330 320 317 311 301 293 289 284 282 278 273 271